Tracking 19245 objects as of 14-Aug-2018
HD Live streaming from Space Station
objects crossing your sky now

COSMOS 1884 (GLONASS)

Track COSMOS 1884 (GLONASS) now!
COSMOS 1884 (GLONASS) is classified as:


NORAD ID: 18356
Int'l Code: 1987-079B
Perigee: 19,092.2 km
Apogee: 19,181.7 km
Inclination: 65.6 °
Period: 675.7 minutes
Semi major axis: 25507 km
RCS: 0.8552 m2 (medium)
Launch date: September 16, 1987
Source: Commonwealth of Independent States (former USSR) (CIS)
Launch site: TYURATAM MISSILE AND SPACE COMPLEX (TTMTR)
SV:
aabbcc
Your satellite tracking list
Your tracking list is empty




NASA's NSSDC Master Catalog

Two Line Element Set (TLE):
1 18356U 87079B   18226.85500241 -.00000035  00000-0  00000+0 0  9996
2 18356  65.6391  54.6130 0017542 218.6125 127.4095  2.13102864240706
Source of the keplerian elements: AFSPC